Skip Page Navigation
NASA JPL Caltech
NASA Logo - Jet Propulsion Laboratory + View the NASA Portal
+ Center for Near-Earth Object Studies
JPL Home Earth Solar System Stars & Galaxies Technology
JPL Solar System Dynamics
BODIES ORBITS EPHEMERIDES TOOLS PHYSICAL DATA DISCOVERY FAQ SITE MAP
IMPORTANT: The SSD Announcement email list is now available. Major changes are coming in the near future, including possible hostname and/or URL changes. To be notified of such changes, subscribe to this email list.

Please visit this page for more details.


JPL Small-Body Database Browser
Search: [ help ]  
413511 (2005 RS24)
Classification: Main-belt Asteroid          SPK-ID: 2413511
Ephemeris | Orbit Diagram | Orbital Elements | Mission Design | Physical Parameters | Discovery Circumstances ]

[ show orbit diagram ]
Orbital Elements at Epoch 2458600.5 (2019-Apr-27.0) TDB
Reference: JPL 14 (heliocentric ecliptic J2000)
 Element Value Uncertainty (1-sigma)   Units 
e .1856391180202171 1.0989e-07  
a 2.625783261362854 2.8787e-08 au
q 2.138335172611204 2.9196e-07 au
i 38.76927674381711 1.6856e-05 deg
node 185.2108435349547 1.3111e-05 deg
peri 245.5189067362234 3.4627e-05 deg
M 12.46330809068318 3.0727e-05 deg
tp 2458546.695627570925
(2019-Mar-04.19562757)
0.00013249 TDB
period 1554.127839377289
4.25
2.5558e-05
6.997e-08
d
yr
n .2316411757634079 3.8093e-09 deg/d
Q 3.113231350114503 3.4131e-08 au
  Orbit Determination Parameters
   # obs. used (total)      146  
   data-arc span      6341 days (17.36 yr)  
   first obs. used      2001-08-26  
   last obs. used      2019-01-05  
   planetary ephem.      DE431  
   SB-pert. ephem.      SB431-N16  
   condition code      0  
   norm. resid. RMS      .65998  
   source      ORB  
   producer      Otto Matic  
   solution date      2019-Jul-14 07:44:04  

Additional Information
 Earth MOID = 1.28665 au 
 Jupiter MOID = 2.58149 au 
 T_jup = 3.070 
[ show covariance matrix ]

Ephemeris | Orbit Diagram | Orbital Elements | Mission Design | Physical Parameters | Discovery Circumstances ]

Physical Parameter Table
Parameter Symbol Value Units Sigma Reference Notes
absolute magnitude H 16.3   n/a MPO455944  

413511 (2005 RS24)          Discovered 2005-Sep-11 by LINEAR at Socorro
Reference: Last Updated: 2014-11-10
Ephemeris | Orbit Diagram | Orbital Elements | Mission Design | Physical Parameters | Discovery Circumstances ]
ABOUT SSD CREDITS/AWARDS PRIVACY/COPYRIGHT GLOSSARY LINKS
FirstGov
(server date/time)  
NASA Home Page
Site Manager:   Ryan S. Park
Webmaster  Alan B. Chamberlin